Home > Weather > Galveston > Past weeks

Flag for U.S.A. Weather for the Past 2 Weeks in Galveston, Texas, U.S.A.

Now
59 °F

Sunny.


Feels Like: 57 °F
Forecast: 47 / 58 °F
Wind: 12 mph from Northwest

Location: Scholes Field

Current Time: Feb 6, 2016 at 12:56:53 PM

Latest Report: Feb 6, 2016 at 11:52 AM


Visibility: 10 mi

Pressure: 30.29 "Hg

Humidity: 51%

Dew point: 41 °F

Location of GalvestonLocation

Historic Weather in Galveston — Graph

°F

Galveston Temperature Yesterday

Maximum temperature yesterday: 56 °F (at 1:52 PM)
Minimum temperature yesterday: 45 °F (at 12:52 AM)
Average temperature yesterday: 51 °F

High & Low Weather Summary for the Past Weeks

 TemperatureHumidityPressure
High70 °F (Jan 31, 12:52 PM)100% (Jan 29, 7:52 AM)30.50 "Hg (Jan 29, 7:52 AM)
Low41 °F (Jan 23, 2:52 AM)34% (Feb 4, 3:52 PM)29.62 "Hg (Feb 2, 1:52 AM)
Average56 °F74%30.09 "Hg
* Reported Jan 22 10:52 AM — Feb 6 10:52 AM, Galveston, Weather by CustomWeather, © 2016

Note: Actual official high and low records may vary slightly from our data, if they occured in-between our weather recording intervals... More about our weather records

Advertising

Galveston Weather History for the Previous 24 Hours

 ConditionsComfort  
Time TempWeatherWind HumidityBarometerVisibility
10:52 AM
Sat, Feb 6
57 °FScattered clouds.12 mph67%30.32 "Hg10 mi
9:52 AM54 °FPassing clouds.8 mph77%30.33 "Hg10 mi
8:52 AM51 °FScattered clouds.No wind96%30.32 "Hg10 mi
7:52 AM50 °FOvercast.7 mph89%30.32 "Hg10 mi
6:52 AM54 °FLight rain. Overcast.12 mph77%30.31 "Hg7 mi
5:52 AM50 °FPassing clouds.6 mph83%30.29 "Hg10 mi
4:52 AM50 °FClear.8 mph83%30.28 "Hg10 mi
3:52 AM53 °FPassing clouds.3 mph74%30.30 "Hg10 mi
2:52 AM52 °FLight rain. Overcast.7 mph77%30.32 "Hg10 mi
1:52 AM53 °FLight rain. Overcast.8 mph72%30.33 "Hg10 mi
12:52 AM53 °FLight rain. Mostly cloudy.6 mph69%30.34 "Hg10 mi
11:52 PM
Fri, Feb 5
53 °FOvercast.9 mph64%30.36 "Hg10 mi
10:52 PM53 °FOvercast.12 mph61%30.36 "Hg10 mi
9:52 PM52 °FPassing clouds.13 mph59%30.36 "Hg10 mi
8:52 PM51 °FClear.15 mph61%30.36 "Hg10 mi
7:52 PM51 °FClear.16 mph56%30.36 "Hg10 mi
6:52 PM50 °FClear.10 mph57%30.37 "Hg10 mi
5:52 PM51 °FSunny.10 mph52%30.37 "Hg10 mi
4:52 PM53 °FSunny.13 mph51%30.36 "Hg10 mi
3:52 PM54 °FSunny.14 mph49%30.36 "Hg10 mi
2:52 PM56 °FScattered clouds.12 mph49%30.39 "Hg10 mi
1:52 PM56 °FSunny.10 mph46%30.41 "Hg10 mi
12:52 PM55 °FSunny.9 mph44%30.44 "Hg10 mi
Weather by CustomWeather, © 2016

See weather overviewHow to use our weather pages